Other Public Products
Issued by NWS Grand Forks, ND

Home | Current Version | Previous Version | Graphics & Text | Print | Product List | Glossary On
Versions: 1 2 3 4 5 6 7 8 9 10 11 12 13 14 15 16 17 18 19 20 21 22 23 24 25 26 27 28 29 30 31 32 33 34 35 36 37 38 39 40 41 42 43 44 45 46 47 48 49 50
000
FPUS83 KFGF 240831
OPUFGF
NATIONAL WEATHER SERVICE EASTERN NORTH DAKOTA/GRAND FORKS ND
300 AM CDT SUN MAY 24 2015

 **SATELLITE DATA USED TO AUGMENT SKY COVER AT AUTOMATED STATIONS**
 *****  WEATHER ACROSS EASTERN NORTH DAKOTA  *****

CITY           SKY/WX    TMP DP  RH WIND       PRES   REMARKS
GRAND FORKS    CLEAR     50  44  80 CALM      30.09S
GRAND FORKS AF FAIR      47  45  93 CALM      30.09S
GRAND CITY NWS   N/A     43 N/A N/A MISG        N/A
BUXTON           N/A     55  50  82 SE5         N/A
DEVILS LAKE    PTCLDY    48  43  81 CALM      30.10F
FARGO          CLEAR     51  47  86 CALM      30.10R
WAHPETON ARPT  PTSUNNY   59  45  58 E6        30.09F
$$

 *****  WEATHER ACROSS CENTRAL AND WESTERN NORTH DAKOTA  *****

CITY           SKY/WX    TMP DP  RH WIND       PRES   REMARKS
JAMESTOWN      CLOUDY    56  51  84 CALM      30.09F
BISMARCK       CLOUDY    56  52  86 E5        30.09F
MINOT          PTCLDY    53  45  74 CALM      30.09F
MINOT AFB      PTCLDY    48  47  96 SW3       30.08F
GARRISON         N/A     55  48  77 CALM      30.10S
WILLISTON      MOCLDY    51  43  74 NE3       30.10F
DICKINSON      CLEAR     46  44  93 NE6       30.07S
HETTINGER      CLOUDY    50  47  89 E7        30.08R
$$

 *****  OTHER OBSERVATIONS NORTHEAST NORTH DAKOTA  *****

CITY           SKY/WX    TMP DP  RH WIND       PRES   REMARKS
WALHALLA         N/A     59  45  58 CALM      30.08F
LANGDON        FAIR      48  43  81 SW7       30.11S
CAVALIER       FAIR      57  46  67 W6        30.08F
GRAFTON        FAIR      52  46  82 SW3       30.10S
CANDO          FAIR      48  45  87 SW3       30.11S
FORT TOTTEN    NOT AVBL
ROLLA          CLOUDY    50  43  76 SW10      30.11F
RUGBY          NOT AVBL
 ***** THE ABOVE OBSERVATIONS ARE NON NWS ARE NOT QUALITY
        CONTROLLED AND MAY MIS-REPORT RAIN FOR SNOW...
$$

 *****  OTHER OBSERVATIONS SOUTHEAST NORTH DAKOTA *****

CITY           SKY/WX    TMP DP  RH WIND       PRES   REMARKS
COOPERSTOWN    NOT AVBL
VALLEY CITY    FAIR      50  48  93 CALM      30.10S
OAKES            N/A     52  50  93 NE6       30.08F
GWINNER        NOT AVBL
SHEYENNE NWR     N/A     51  49  91 CALM      29.95S
BUFFALO        NOT AVBL
WYNDMERE         N/A     57  48  72 NE3         N/A
 ***** THE ABOVE OBSERVATIONS ARE NON NWS ARE NOT QUALITY
       CONTROLLED AND MAY MIS-REPORT RAIN FOR SNOW...
$$

  *****  WEATHER ACROSS NORTHERN MINNESOTA  *****

CITY           SKY/WX    TMP DP  RH WIND       PRES   REMARKS
FLAG ISLAND    CLEAR     59  45  58 SW10      30.07R
WARROAD        CLEAR     55  46  71 SW7       30.11R
ROSEAU         CLEAR     55  45  67 CALM      30.10S
HALLOCK        PTCLDY    52  45  76 S9        30.09S
THF RVR FALLS  PTCLDY    52  43  71 CALM      30.12S
HALSTAD          N/A     50  43  77 SE6         N/A
FOSSTON        PTCLDY    48  41  76 CALM      30.13S
BAUDETTE       CLEAR     51  42  71 CALM      30.10S
WASKISH        FAIR      48  45  87 CALM      30.13R
CROOKSTON      CLEAR     52  45  76 CALM      30.11S
$$
  *****  WEATHER ACROSS CENTRAL AND WEST MINNESOTA  *****

CITY           SKY/WX    TMP DP  RH WIND       PRES   REMARKS
BEMIDJI        PTCLDY    46  41  82 CALM      30.14R
PARK RAPIDS    CLOUDY    54  46  74 N3        30.13R
WADENA         FAIR      55  48  76 CALM      30.12F
DETROIT LAKES  PTCLDY    54  46  76 CALM      30.14R
MOORHEAD       CLEAR     54  46  76 CALM      30.11S
FERGUS FALLS   PTCLDY    61  46  59 E6        30.10F
ELBOW LAKE     FAIR      59  47  65 E9        30.09F
MORRIS MN      CLOUDY    57  48  72 E9        30.07F
STAPLES        MOCLDY    55  46  71 CALM      30.13R
WHEATON        CLOUDY    57  46  67 E10       30.08F
$$
  *****  WEATHER ELSEWHERE ACROSS MINNESOTA  *****

CITY           SKY/WX    TMP DP  RH WIND       PRES   REMARKS
DULUTH         PTCLDY    49  42  77 CALM      30.14F
INTRNTL FALLS  CLEAR     49  42  77 SW5       30.11R
ELY            CLEAR     48  43  81 CALM      30.13S
CLOQUET        PTCLDY    46  41  81 CALM      30.14S
BRAINERD       MOCLDY    56  48  74 S3        30.14R
HIBBING        PTCLDY    40  38  93 CALM      30.13F
ALEXANDRIA     CLOUDY    59  46  62 E7        30.12R
SAINT CLOUD    CLOUDY    59  46  62 E5        30.12R
MINNEAPOLIS    CLOUDY    60  51  72 NE5       30.11S
$$

  *****  WEATHER ACROSS SOUTH DAKOTA  *****

CITY           SKY/WX    TMP DP  RH WIND       PRES   REMARKS
SIOUX FALLS    LGT RAIN  58  57  97 E5        30.04F FOG
BROOKINGS      CLOUDY    59  54  82 SE10      30.06S
WATERTOWN      CLOUDY    57  48  72 E3        30.05F
HURON          CLOUDY    54  52  93 S3        30.02F
SISSETON         N/A     54  49  83 N3        30.07F
ABERDEEN       CLOUDY    55  49  80 E9        30.05F
MITCHELL       CLOUDY    57  56  96 E3        30.02F FOG
PIERRE         LGT RAIN  54  53  97 NE8       30.01F FOG
MOBRIDGE       CLOUDY    55  52  89 E10       30.02F
RAPID CITY     LGT RAIN  53  52  96 E9        29.99F FOG
$$

  *****  SOME WEATHER IN NEARBY STATES *****

CITY           SKY/WX    TMP DP  RH WIND       PRES   REMARKS
GLASGOW MT     CLEAR     47  39  74 NE7       30.09F
GREAT FALLS MT FOG       47  47 100 SW3       30.10F VSB 3/4
CHEYENNE WY    PTCLDY    43  39  86 CALM      29.94S
SCOTTSBLUFF NE LGT RAIN  51  50  96 CALM      29.91F
OMAHA NE       LGT RAIN  61  59  93 E13       29.96F
DES MOINES IA  LGT RAIN  63  56  78 SE12      30.06S
DAVENPORT IA   CLOUDY    67  48  50 SE7       30.15S
CHICAGO IL     MOCLDY    62  47  57 S5        30.19R
EAU CLAIRE WI  CLOUDY    58  47  66 NE3       30.13S
LA CROSSE WI   CLOUDY    60  50  69 SE6       30.14R
$$

  *****  SOME NATIONAL WEATHER *****

CITY           SKY/WX    TMP DP  RH WIND       PRES   REMARKS
LA GUARDIA NY  CLEAR     57  38  48 S8        30.34F
RALEIGH NC     PTCLDY    60  53  77 CALM      30.38F
ATLANTA GA     PTCLDY    65  55  70 SE7       30.30S
NEW ORLEANS LA PTCLDY    77  71  82 SE7       30.09S
OKLAHOMA CITY  LGT RAIN  60  59  96 SE12      29.89F
ALBUQUERQUE NM PTCLDY    54  35  48 NW10      30.01S
SALT LAKE CITY MOCLDY    50  43  77 SE6       29.96S
LOS ANGELES CA MOCLDY    58  53  84 W8        30.02F
BOISE ID       MOCLDY    59  51  75 SE10      29.95R
SEATTLE WA     CLOUDY    55  49  80 SW6       30.18S
$$

*** WEATHER ACROSS MANITOBA...SASKATCHEWAN AND ONTARIO ***
                ***ONTARIO***

CITY           SKY/WX    TMP DP  RH WIND       PRES   REMARKS
GERALDTON      CLEAR     46  41  81 N5        30.05S
THUNDER BAY    CLEAR     45  41  87 NW6       30.07R
SIOUX LOOKOUT  CLEAR     45  41  87 SW2       30.04F
TORONTO        CLEAR     54  28  37 W6        30.24S
BIG TROUT LK   CLEAR     34  30  86 SW7       30.04F
PICKLE LAKE    NOT AVBL
DRYDEN         CLEAR     55  39  54 W9        30.05S
KENORA         CLEAR     59  39  47 W7        30.08R
$$
                *** MANITOBA***

CITY           SKY/WX    TMP DP  RH WIND       PRES   REMARKS
BRANDON        CLEAR     52  43  71 VRB2      30.08S
DAUPHIN        CLEAR     45  41  87 NW3       30.11S
ISLAND LAKE    CLEAR     39  37  93 CALM      30.10S
PILOT MOUND      N/A     48  43  81 S3          N/A
THE PAS        PTCLDY    41  36  81 SE2       30.11S
THOMPSON       PTCLDY    41  28  60 W2        30.05F
WINNIPEG       CLEAR     54  41  62 VRB2      30.08R
LYNN LAKE      CLEAR     43  19  39 W7        30.06S
CHURCHILL      PTCLDY    36  34  93 NW13      29.88R
$$
                ***SASKATCHEWAN***

CITY           SKY/WX    TMP DP  RH WIND       PRES   REMARKS
ESTEVAN        CLEAR     48  43  81 S7        30.10R
KINDERSLEY     PTCLDY    52  28  40 S7        30.10R
LLOYDMINSTER   PTCLDY    54  41  62 NE7       30.08S
PRINCE ALBERT  PTCLDY    48  41  76 NE2       30.08S
REGINA         CLEAR     52  36  54 NW5       30.09S
YORKTON        CLEAR     48  45  87 NW5       30.09R


USA.gov is the U.S. government's official web portal to all federal, state and local government web resources and services.